Back to catalog

FENGYUN 1C DEB

LostSSO
NORAD 37909·DEBRIS·🇨🇳 China

Launched May 10, 1999 from Taiyuan Satellite Launch Center

Loading…

Next Passes (next 24 hours)

TLE

StaleSource: Space-Track

Epoch: Mar 17, 2025, 04:06 UTC

1 37909U 99025ENJ 25076.17110926  .00005348  00000-0  41974-2 0  9997
2 37909  98.8747  61.7091 0187429 197.5364 161.9263 13.84428050780247

Track FENGYUN 1C DEB in real time with AllMySat

Download on the App Store